Location: Peralejo
(40.5415°N, 4.1259°W)
Time: 02:47:36
(UTC+00:00)

SPOT 5 - Pass Details

Date: 18 April 2024
Orbit: 620 x 810 km, 98.1° (Epoch: 28 May)

Event Time Altitude Azimuth Distance (km) Brightness Sun altitude
Exits shadow 20:27:13 26° 115° (ESE) 1,555 4.0 -16.2°
Maximum altitude 20:29:26 37° 70° (ENE) 1,235 3.8 -16.5°
Drops below altitude 10° 20:34:14 10° 4° (N) 2,369 5.9 -17.3°
Sets 20:36:41 0° 356° (N) 3,283 6.8 -17.7°
